DW2849 Weather Reports


Display with metric or nautical units.
time (UTC)temp
F
wind
direction
speed
MPH
gust
MPH
rain 1hr
in
rain 24hr
in
rain mn
in
humidity
%
barometer
mb
20260508181512 57 178 1.0 3.0 0.00 0.00 0.00 83 1018.1
20260508180812 56 280 1.0 4.0 0.00 0.00 0.00 84 1018.1
20260508180112 55 180 1.0 3.0 0.00 0.00 0.00 85 1018.0
20260508175221 54 260 3.0 4.0 0.00 0.00 0.00 87 1018.1
20260508174520 53 205 1.0 3.0 0.00 0.00 0.00 88 1018.1
20260508173822 53 198 1.0 3.0 0.00 0.00 0.00 88 1018.1
20260508172929 52 238 1.0 3.0 0.00 0.00 0.00 89 1018.1
20260508172229 52 220 1.0 4.0 0.00 0.00 0.00 88 1018.2
20260508171530 52 180 1.0 5.0 0.00 0.00 0.00 88 1018.1
20260508170829 51 225 3.0 5.0 0.00 0.00 0.00 89 1018.0
20260508170131 51 252 1.0 4.0 0.00 0.00 0.00 89 1018.0
20260508165429 0 220 1.0 3.0 0.00 0.00 0.00 1018.0
20260508164729 52 230 1.0 3.0 0.00 0.00 0.00 89 1018.0
20260508164029 51 250 2.0 3.0 0.00 0.00 0.00 88 1017.9
20260508163329 51 220 1.0 3.0 0.00 0.00 0.00 89 1017.9
20260508162629 50 230 1.0 4.0 0.00 0.00 0.00 89 1017.9
20260508161545 51 222 1.0 3.0 0.00 0.00 0.00 89 1017.9
20260508160845 51 335 1.0 3.0 0.00 0.00 0.00 89 1017.9
20260508160145 51 210 2.0 3.0 0.00 0.00 0.00 88 1017.8
20260508155445 50 228 0.0 2.0 0.00 0.00 0.00 88 1017.8
20260508154745 50 125 1.0 2.0 0.00 0.00 0.00 88 1017.8
20260508154045 50 235 1.0 2.0 0.00 0.00 0.00 89 1017.7
20260508153345 50 315 0.0 2.0 0.00 0.00 0.00 88 1017.7
20260508152645 49 340 1.0 2.0 0.00 0.00 0.00 89 1017.6
20260508151754 50 45 0.0 2.0 0.00 0.00 0.00 88 1017.5
20260508151054 49 12 1.0 2.0 0.00 0.00 0.00 89 1017.3
20260508150203 49 20 1.0 2.0 0.00 0.00 0.00 89 1017.2
20260508145503 49 0 1.0 2.0 0.00 0.00 0.00 89 1017.3
20260508144802 49 0 0.0 2.0 0.00 0.00 0.00 89 1017.4
20260508144103 49 0 0.0 2.0 0.00 0.00 0.00 89 1017.5
20260508143403 49 0 0.0 2.0 0.00 0.00 0.00 89 1017.2
20260508142703 48 35 1.0 2.0 0.00 0.00 0.00 89 1017.1
20260508142003 49 0 0.0 2.0 0.00 0.00 0.00 89 1017.1
20260508141303 49 45 0.0 2.0 0.00 0.00 0.00 89 1017.0
20260508140411 48 45 0.0 0.0 0.00 0.00 0.00 89 1017.1
20260508135711 48 45 0.0 0.0 0.00 0.00 0.00 89 1017.1
20260508135012 48 45 0.0 1.0 0.00 0.00 0.00 89 1017.0
20260508134120 48 45 1.0 2.0 0.00 0.00 0.00 89 1016.9
20260508133420 48 45 1.0 2.0 0.00 0.00 0.00 89 1016.9
20260508132720 48 60 0.0 0.0 0.00 0.00 0.00 89 1016.8
20260508132020 48 22 0.0 0.0 0.00 0.00 0.00 89 1016.8
20260508131320 48 325 0.0 0.0 0.00 0.00 0.00 89 1016.9
20260508130620 48 295 0.0 0.0 0.00 0.00 0.00 89 1016.9
20260508125728 48 0 0.0 0.0 0.00 0.00 0.00 89 1016.8
20260508125028 49 0 0.0 0.0 0.00 0.00 0.00 89 1016.8
20260508124329 49 0 0.0 0.0 0.00 0.00 0.00 89 1016.7
20260508123629 49 0 0.0 0.0 0.00 0.00 0.00 89 1016.7
20260508122929 49 0 0.0 2.0 0.00 0.00 0.00 88 1016.7
20260508122037 48 10 2.0 3.0 0.00 0.00 0.00 89 1016.6
20260508121338 48 0 0.0 2.0 0.00 0.00 0.00 89 1016.6
20260508120638 48 0 1.0 2.0 0.00 0.00 0.00 88 1016.6
20260508115938 48 0 1.0 2.0 0.00 0.00 0.00 88 1016.6
20260508115046 48 18 3.0 3.0 0.00 0.00 0.00 88 1016.5
20260508114346 48 45 2.0 3.0 0.00 0.00 0.00 88 1016.5
20260508113646 48 35 2.0 3.0 0.00 0.00 0.00 88 1016.5
20260508112947 48 17 2.0 2.0 0.00 0.00 0.00 88 1016.6
20260508112246 47 5 2.0 2.0 0.00 0.00 0.00 88 1016.6
20260508111546 47 32 2.0 2.0 0.00 0.00 0.00 88 1016.6
20260508110654 47 22 1.0 2.0 0.00 0.00 0.00 88 1016.6
20260508105955 47 0 0.0 2.0 0.00 0.00 0.00 88 1016.6
20260508105255 47 10 1.0 2.0 0.00 0.00 0.00 88 1016.6
20260508104555 46 17 1.0 2.0 0.00 0.00 0.00 88 1016.7
20260508103854 46 0 0.0 0.0 0.00 0.00 0.00 88 1016.8
20260508103003 46 0 0.0 0.0 0.00 0.00 0.00 89 1016.7
20260508102306 47 0 0.0 2.0 0.00 0.00 0.00 89 1016.6
20260508101605 47 0 1.0 2.0 0.00 0.00 0.00 88 1016.6
20260508100903 47 0 1.0 2.0 0.00 0.00 0.00 88 1016.6
20260508100203 47 315 1.0 2.0 0.00 0.00 0.00 88 1016.6
20260508095311 47 270 2.0 3.0 0.00 0.00 0.00 88 1016.6
20260508094612 47 270 1.0 2.0 0.00 0.00 0.00 88 1016.7
20260508093912 46 225 1.0 2.0 0.00 0.00 0.00 88 1016.8
20260508093212 46 225 2.0 2.0 0.00 0.00 0.00 88 1016.8
20260508092512 46 225 1.0 2.0 0.00 0.00 0.00 89 1016.7
20260508091812 46 225 1.0 2.0 0.00 0.00 0.00 89 1016.7
20260508091112 47 0 0.0 0.0 0.00 0.00 0.00 88 1016.6
20260508090222 47 0 0.0 0.0 0.00 0.00 0.00 88 1016.7
20260508085520 47 0 0.0 2.0 0.00 0.00 0.00 88 1016.7
20260508084821 47 0 1.0 2.0 0.00 0.00 0.00 88 1016.6
20260508084120 47 22 0.0 2.0 0.00 0.00 0.00 88 1016.6
20260508083229 47 45 2.0 3.0 0.00 0.00 0.00 88 1016.7
20260508082530 47 45 2.0 3.0 0.00 0.00 0.00 89 1016.6
20260508081829 48 45 2.0 2.0 0.00 0.00 0.00 89 1016.6
20260508081129 48 45 2.0 2.0 0.00 0.00 0.00 88 1016.6
20260508080429 48 45 1.0 2.0 0.00 0.00 0.00 88 1016.7
20260508075538 48 45 1.0 3.0 0.00 0.00 0.00 88 1016.6
20260508074839 48 45 3.0 3.0 0.00 0.00 0.00 88 1016.6
20260508074138 48 45 2.0 3.0 0.00 0.00 0.00 88 1016.7
20260508073438 48 45 3.0 4.0 0.00 0.00 0.00 88 1016.6
20260508072546 49 45 3.0 3.0 0.00 0.00 0.00 88 1016.6
20260508071847 49 45 2.0 2.0 0.00 0.00 0.00 88 1016.6
20260508071147 49 0 2.0 2.0 0.00 0.00 0.00 88 1016.6
20260508070447 49 0 0.0 2.0 0.00 0.00 0.00 88 1016.6
20260508065747 49 0 0.0 2.0 0.00 0.00 0.00 88 1016.5
20260508065047 49 0 1.0 2.0 0.00 0.00 0.00 88 1016.5
20260508064155 49 0 0.0 0.0 0.00 0.00 0.00 88 1016.5
20260508063455 49 315 0.0 0.0 0.00 0.00 0.00 88 1016.6
20260508062755 49 315 0.0 0.0 0.00 0.00 0.00 88 1016.6
20260508061904 49 315 0.0 0.0 0.00 0.00 0.00 88 1016.6
20260508061204 49 315 0.0 2.0 0.00 0.00 0.00 88 1016.6
20260508060504 49 315 1.0 2.0 0.00 0.00 0.00 88 1016.6
20260508055804 49 315 1.0 2.0 0.00 0.00 0.00 88 1016.6
20260508055104 49 315 2.0 2.0 0.00 0.00 0.00 88 1016.6
20260508054404 49 315 2.0 2.0 0.00 0.00 0.00 88 1016.6
20260508053704 49 315 1.0 2.0 0.00 0.00 0.00 88 1016.6
20260508053004 49 301 2.0 5.0 0.00 0.00 0.00 88 1016.6
20260508052113 49 280 2.0 6.0 0.00 0.00 0.00 88 1016.6
20260508051413 49 248 3.0 6.0 0.00 0.00 0.00 87 1016.6
20260508050713 49 264 3.0 6.0 0.00 0.00 0.00 87 1016.6
20260508050013 49 248 3.0 5.0 0.00 0.00 0.00 88 1016.6
20260508045122 49 267 1.0 2.0 0.00 0.00 0.00 88 1016.6
20260508044423 49 290 0.0 2.0 0.00 0.00 0.00 87 1016.7
20260508043530 49 295 1.0 3.0 0.00 0.00 0.00 88 1016.6
20260508042830 50 315 1.0 3.0 0.00 0.00 0.00 87 1016.5
20260508042130 50 270 2.0 3.0 0.00 0.00 0.00 87 1016.3
20260508041430 50 315 1.0 2.0 0.00 0.00 0.00 87 1016.2
20260508040730 50 315 1.0 2.0 0.00 0.00 0.00 87 1016.2
20260508040030 50 292 2.0 3.0 0.00 0.00 0.00 87 1016.2
20260508035138 50 272 3.0 4.0 0.00 0.00 0.00 87 1016.0
20260508034439 51 270 3.0 4.0 0.00 0.00 0.00 87 1015.9
20260508033739 51 270 3.0 4.0 0.00 0.00 0.00 87 1015.9
20260508033039 51 270 3.0 4.0 0.00 0.00 0.00 87 1015.9
20260508032338 51 270 3.0 4.0 0.00 0.00 0.00 87 1015.8
20260508031639 51 295 2.0 3.0 0.00 0.00 0.00 86 1015.8
20260508030939 52 310 2.0 3.0 0.00 0.00 0.00 86 1015.8
20260508030239 52 290 3.0 4.0 0.00 0.00 0.00 86 1015.8
20260508025539 52 280 3.0 4.0 0.00 0.00 0.00 86 1015.7
20260508024647 53 285 2.0 5.0 0.00 0.00 0.00 85 1015.7
20260508023947 54 280 2.0 5.0 0.00 0.00 0.00 84 1015.7
20260508023247 55 270 2.0 4.0 0.00 0.00 0.00 84 1015.7
20260508022356 56 248 2.0 6.0 0.00 0.00 0.00 83 1015.7
20260508021656 56 272 3.0 6.0 0.00 0.00 0.00 83 1015.7
20260508020956 57 270 2.0 3.0 0.00 0.00 0.00 82 1015.8
20260508020259 57 222 2.0 4.0 0.00 0.00 0.00 82 1015.8
20260508015556 57 235 2.0 5.0 0.00 0.00 0.00 82 1015.8
20260508014855 58 270 3.0 5.0 0.00 0.00 0.00 82 1015.9
20260508014156 58 262 3.0 5.0 0.00 0.00 0.00 81 1015.9
20260508013113 59 262 3.0 6.0 0.00 0.00 0.00 81 1016.0
20260508012413 59 255 2.0 6.0 0.00 0.00 0.00 80 1016.0
20260508011712 60 275 3.0 6.0 0.00 0.00 0.00 80 1016.1
20260508011013 60 270 2.0 6.0 0.00 0.00 0.00 79 1016.1
20260508010314 59 258 2.0 6.0 0.00 0.00 0.00 81 1016.1
20260508005613 59 250 2.0 4.0 0.00 0.00 0.00 80 1016.1
20260508004913 59 278 3.0 6.0 0.00 0.00 0.00 80 1016.2
20260508004212 59 276 3.0 6.0 0.00 0.00 0.00 80 1016.3
20260508003321 59 280 3.0 6.0 0.00 0.00 0.00 80 1016.3
20260508002622 58 268 4.0 7.0 0.00 0.00 0.00 80 1016.3
20260508001922 58 278 2.0 9.0 0.00 0.00 0.00 80 1016.3
20260508001221 58 278 3.0 9.0 0.00 0.00 0.00 80 1016.3
20260508000521 57 280 4.0 8.0 0.00 0.00 0.00 80 1016.3
20260507235630 57 280 4.0 11.0 0.00 0.00 0.00 81 1016.4
20260507234930 57 225 5.0 11.0 0.00 0.00 0.00 80 1016.4
20260507234230 57 252 3.0 8.0 0.00 0.00 0.00 81 1016.4
20260507233530 57 275 4.0 9.0 0.00 0.00 0.00 80 1016.5
20260507232830 57 270 5.0 9.0 0.00 0.00 0.00 80 1016.6
20260507231939 57 272 4.0 10.0 0.00 0.00 0.00 80 1016.7
20260507231239 58 258 4.0 7.0 0.00 0.00 0.00 80 1016.7
20260507230539 58 268 4.0 7.0 0.00 0.00 0.00 80 1016.8
20260507225839 59 276 5.0 11.0 0.00 0.00 0.00 79 1016.8
20260507225139 59 250 5.0 12.0 0.00 0.00 0.00 79 1016.9
20260507224247 61 272 6.0 9.0 0.00 0.00 0.00 78 1017.0
20260507223547 62 255 5.0 6.0 0.00 0.00 0.00 77 1017.1
20260507222848 62 255 3.0 7.0 0.00 0.00 0.00 77 1017.2
20260507222147 62 265 4.0 9.0 0.00 0.00 0.00 77 1017.2
20260507221447 64 295 4.0 7.0 0.00 0.00 0.00 76 1017.3
20260507220556 64 280 5.0 10.0 0.00 0.00 0.00 75 1017.3
20260507215856 65 250 4.0 7.0 0.00 0.00 0.00 75 1017.3
20260507215156 66 262 3.0 6.0 0.00 0.00 0.00 74 1017.4
20260507214456 65 219 3.0 6.0 0.00 0.00 0.00 75 1017.4
20260507213756 66 308 3.0 7.0 0.00 0.00 0.00 74 1017.5
20260507212905 66 264 3.0 4.0 0.00 0.00 0.00 75 1017.6
20260507212205 66 290 2.0 8.0 0.00 0.00 0.00 75 1017.7
20260507211505 67 276 3.0 8.0 0.00 0.00 0.00 75 1017.7
20260507210804 67 236 3.0 5.0 0.00 0.00 0.00 75 1017.7
20260507210105 66 248 2.0 4.0 0.00 0.00 0.00 75 1017.7
20260507205213 65 253 3.0 5.0 0.00 0.00 0.00 75 1017.7
20260507204513 65 225 2.0 4.0 0.00 0.00 0.00 76 1017.8
20260507203813 65 200 3.0 5.0 0.00 0.00 0.00 75 1017.8
20260507203113 65 233 4.0 5.0 0.00 0.00 0.00 76 1017.9
20260507202413 64 209 2.0 5.0 0.00 0.00 0.00 77 1017.9
20260507201522 64 180 2.0 5.0 0.00 0.00 0.00 76 1018.0
20260507200822 64 211 3.0 6.0 0.00 0.00 0.00 76 1018.0
20260507200122 64 177 3.0 6.0 0.00 0.00 0.00 77 1018.0
20260507195422 63 205 3.0 5.0 0.00 0.00 0.00 77 1018.1
20260507194722 62 219 2.0 5.0 0.00 0.00 0.00 77 1018.0
20260507193830 62 215 3.0 6.0 0.00 0.00 0.00 78 1018.0
20260507193131 61 200 3.0 6.0 0.00 0.00 0.00 78 1018.1
20260507192430 61 217 3.0 6.0 0.00 0.00 0.00 79 1018.2
20260507191730 60 233 2.0 6.0 0.00 0.00 0.00 80 1018.3
20260507191030 60 298 3.0 6.0 0.00 0.00 0.00 80 1018.3
20260507190139 59 214 2.0 4.0 0.00 0.00 0.00 81 1018.4
20260507185439 58 222 2.0 5.0 0.00 0.00 0.00 82 1018.5
20260507184739 57 231 3.0 6.0 0.00 0.00 0.00 83 1018.5
20260507184039 56 214 2.0 4.0 0.00 0.00 0.00 84 1018.5
20260507183339 56 222 3.0 4.0 0.00 0.00 0.00 84 1018.6
20260507182448 55 214 2.0 4.0 0.00 0.00 0.00 85 1018.7
20260507181748 56 256 2.0 4.0 0.00 0.00 0.00 85 1018.7